Wind_Speed
51 48 51 48 47 47 49 49 46 46 44 44 43 42 38 40 43 39 40 41 47 50 42 37 33 31 31 31 36 35 34 34 29 25 27 28 32 38 36 35 38 41 42
56 50 50 50 50 48 46 44 46 46 46 45 46 42 40 42 46 42 41 50 50 46 36 26 30 27 34 36 35 31 29 21 18 21 24 26 32 28 32 35 36 37 43
56 53 52 51 50 45 43 43 45 46 45 46 45 44 41 45 49 55 53 47 43 33 37 25 28 30 22 28 24 24 20 21 31 36 39 40 37 37 31 33 36 48 53
51 52 53 52 49 46 44 44 47 51 48 48 46 47 49 53 59 60 53 42 43 35 36 32 34 43 38 50 39 39 39 39 37 37 37 43 44 46 53 53 54 63 65
54 54 54 52 49 47 45 48 51 50 50 49 47 50 58 61 64 49 47 43 43 35 39 44 43 50 46 48 49 42 46 38 47 52 55 54 57 56 61 65 65 69 74
54 53 55 51 51 48 49 51 51 52 53 53 53 57 66 63 58 56 44 46 42 34 39 44 49 50 50 56 55 47 47 50 53 52 47 52 58 67 68 72 72 77 84
52 54 56 52 50 48 50 51 52 55 55 56 61 68 63 59 54 55 45 42 47 43 41 44 51 54 59 59 53 47 47 50 59 57 56 64 66 71 80 80 83 89 84
52 53 54 52 52 53 55 53 60 56 57 60 66 60 58 59 57 56 49 48 47 50 56 57 57 59 69 63 54 49 47 58 60 61 66 69 76 80 86 90 96 99 84
53 52 52 54 52 52 51 50 55 54 56 61 59 58 61 62 60 54 55 58 59 61 60 64 69 71 73 61 55 50 58 69 72 70 75 84 85 91 96 103 103 104 80
59 54 55 53 54 51 53 50 44 49 60 61 59 60 59 63 63 63 65 65 67 69 74 72 76 73 62 55 56 69 75 79 81 84 88 91 98 104 108 111 100 92 81
58 57 57 56 58 53 55 49 52 54 58 59 65 60 67 67 66 72 64 74 75 73 78 79 79 64 59 61 73 80 85 89 92 99 100 103 113 117 118 115 97 84 77
59 60 57 56 53 57 61 57 59 58 61 64 63 65 69 71 72 74 75 79 78 82 85 85 67 63 75 95 91 92 100 98 103 105 113 114 122 121 120 108 93 87 87
54 54 55 53 56 60 60 60 67 62 67 67 71 71 71 71 73 76 78 79 86 91 84 75 79 90 100 96 100 104 105 111 113 122 126 127 119 124 113 101 94 92 97
57 61 62 59 59 64 70 70 68 75 77 69 70 72 79 85 92 94 91 92 95 85 90 91 104 100 103 108 111 114 120 123 125 125 124 132 130 119 109 98 100 102 104
61 60 62 63 65 63 60 70 76 76 76 77 80 86 91 92 98 99 100 96 90 99 101 106 110 109 113 121 126 127 133 135 129 132 130 122 121 110 111 108 108 111 112
68 66 61 63 66 69 70 72 73 76 85 90 93 96 95 92 91 90 92 97 101 109 115 116 123 126 128 128 131 137 135 139 139 130 118 126 111 116 114 115 118 112 104
73 70 68 75 77 79 80 84 87 90 84 88 91 93 90 89 90 99 108 112 115 117 120 127 126 135 136 137 143 145 148 141 132 130 118 119 119 120 121 116 102 91 83
67 79 77 80 82 85 88 90 95 95 97 98 98 98 97 101 106 110 116 124 126 128 132 132 134 140 143 148 151 146 141 132 117 122 126 124 122 119 102 86 75 68 63
80 81 82 81 86 87 88 91 93 96 99 97 97 104 110 114 120 124 124 126 126 133 137 143 146 147 152 150 149 137 122 126 126 127 121 120 105 85 72 63 57 57 54
84 86 84 84 85 85 87 89 92 96 98 103 108 111 111 113 117 123 129 137 141 140 141 145 147 139 140 127 123 126 127 124 120 117 106 87 75 64 55 50 51 49 47
76 75 78 80 86 86 91 95 97 99 102 105 107 114 116 120 126 133 136 134 138 140 139 136 128 120 127 126 125 121 121 115 100 85 76 66 56 51 48 47 47 45 43
86 85 86 87 91 95 97 99 103 106 109 111 116 121 125 135 139 132 136 132 123 122 125 127 125 124 126 122 118 104 89 84 77 68 57 52 46 47 45 45 45 45 44
86 88 91 94 97 98 107 110 112 114 118 121 123 125 124 126 119 108 114 119 120 122 122 120 118 113 103 94 84 79 74 67 60 52 46 48 44 45 44 45 46 46 45
92 92 97 102 103 106 107 106 104 107 111 112 113 107 95 99 105 110 113 115 115 117 105 94 88 85 79 74 69 64 59 53 47 45 44 46 44 44 44 47 49 47 45
82 85 87 86 87 90 93 94 97 100 103 88 84 89 96 104 107 109 109 110 105 89 80 75 71 67 64 61 56 51 46 42 41 44 46 43 47 44 45 49 50 51 50
78 78 79 82 86 89 93 91 87 77 77 80 84 94 99 99 102 102 101 94 83 73 69 65 59 55 53 50 47 43 42 41 42 44 48 45 47 46 46 48 49 51 52
Wind_Direction
263 266 271 275 282 277 271 266 269 276 285 287 289 288 276 277 285 292 295 289 301 301 294 283 287 286 285 285 284 288 288 287 287 293 309 304 298 287 283 285 283 279 277
264 268 270 274 280 279 273 271 275 277 285 288 286 281 279 288 296 298 292 298 300 296 297 287 281 288 292 278 287 284 282 277 272 290 313 313 314 316 295 287 287 294 287
265 269 269 274 278 271 273 275 277 281 283 285 279 279 281 298 298 301 299 299 306 283 293 282 330 299 305 319 289 285 292 285 294 302 297 315 315 322 294 291 304 316 314
265 266 267 274 274 273 272 284 285 281 282 280 277 278 283 289 294 298 301 282 298 287 291 301 283 325 314 318 309 302 301 311 324 309 315 314 320 314 316 311 305 309 312
262 264 268 273 273 275 276 276 282 277 277 274 278 281 291 294 303 295 298 285 299 279 274 285 301 311 300 314 305 304 289 286 305 315 319 318 316 311 309 306 305 307 305
262 262 268 272 276 275 272 273 279 276 272 275 289 294 296 294 298 297 283 277 293 287 278 278 289 294 295 303 307 291 281 273 291 295 296 301 301 303 303 303 305 306 304
257 264 270 271 271 271 270 273 270 269 275 276 291 292 293 299 292 294 277 271 288 288 284 285 284 294 301 301 291 294 277 290 278 295 294 296 291 296 302 302 302 301 298
258 263 266 269 268 266 263 267 270 269 277 289 291 290 293 288 289 295 272 280 288 290 290 295 290 295 305 302 296 292 290 295 290 285 286 287 290 295 299 298 299 307 302
250 256 261 260 261 259 269 273 271 276 285 289 287 290 293 287 289 290 279 285 292 291 293 292 297 303 302 297 287 280 290 292 290 285 286 290 293 293 294 300 303 308 302
250 250 253 255 260 263 268 268 274 284 290 287 282 287 288 291 288 295 294 286 290 291 293 295 301 300 290 285 290 294 285 284 285 290 290 290 296 300 302 307 303 302 301
252 250 255 255 258 273 264 259 275 277 277 273 282 281 287 290 286 287 283 290 289 294 298 298 302 296 280 280 288 285 282 287 288 291 292 293 298 300 305 307 301 297 296
254 256 258 259 261 260 258 263 275 274 278 279 276 281 281 283 290 286 289 292 289 292 296 295 287 286 284 289 288 286 285 288 289 289 297 297 300 303 304 302 294 293 292
247 248 257 257 254 252 260 272 271 274 278 275 281 281 281 283 286 290 290 290 288 292 293 282 279 286 288 286 283 288 289 290 294 298 301 302 301 302 300 296 292 290 292
245 250 254 248 247 253 258 264 263 269 274 276 275 275 280 286 287 292 289 288 289 284 282 281 286 284 284 287 289 290 291 294 298 300 301 302 299 299 296 292 293 289 290
244 247 250 254 257 259 265 265 266 268 271 275 278 278 284 287 287 288 288 288 282 285 286 285 286 285 286 289 292 292 294 296 295 298 298 299 298 294 294 291 290 288 286
242 245 245 253 256 255 261 267 268 269 276 279 283 286 287 287 286 283 284 282 281 283 285 286 288 289 291 291 292 294 295 295 298 298 296 296 294 293 291 290 289 289 285
242 244 249 255 255 260 266 269 273 279 282 282 282 280 282 284 280 281 283 284 284 284 285 288 290 292 292 293 294 296 297 297 296 295 293 292 293 292 291 292 289 285 281
251 247 249 254 256 265 268 270 272 273 275 276 276 279 282 282 283 284 285 287 286 286 288 289 290 291 294 292 295 297 297 294 293 292 292 293 293 293 291 289 286 280 275
248 252 255 259 260 264 268 269 270 271 274 276 277 278 279 282 282 284 285 286 287 290 290 290 291 291 293 295 294 293 292 292 291 291 292 292 292 290 289 285 279 276 273
251 254 256 259 260 264 266 270 271 272 274 275 277 279 283 283 283 283 286 290 292 293 293 293 292 292 291 291 290 290 290 290 291 291 293 290 288 286 281 277 274 274 274
248 252 255 259 261 266 267 270 273 275 277 280 280 283 284 284 286 290 293 294 292 291 290 290 291 290 289 290 290 290 290 290 292 290 289 286 282 278 277 274 275 275 274
252 255 260 263 267 268 271 274 278 279 280 282 283 286 287 287 291 291 291 291 292 291 290 290 290 290 290 289 289 291 290 291 289 287 282 277 277 275 274 274 274 274 275
258 260 263 266 271 273 273 275 279 281 283 286 286 289 292 291 291 292 290 290 291 294 294 292 291 290 289 288 289 289 289 288 284 280 275 274 274 273 274 275 274 275 276
262 265 266 268 272 274 276 279 282 282 285 288 291 293 294 294 294 294 297 298 298 297 296 293 291 290 289 287 288 287 285 281 278 276 274 274 275 274 276 276 277 278 278
265 266 268 274 277 279 282 285 287 289 293 294 295 299 299 301 301 301 303 303 302 300 298 296 293 291 289 287 285 283 280 278 276 275 275 272 274 272 272 274 278 280 280
272 274 275 276 280 283 286 288 291 293 294 300 300 304 306 306 305 305 306 305 303 302 301 299 297 293 290 288 286 282 279 276 275 275 274 274 274 273 275 274 275 278 279
Height
10846 10846 10848 10849 10849 10849 10848 10848 10849 10848 10847 10846 10845 10843 10842 10841 10840 10839 10838 10836 10834 10833 10830 10828 10827 10827 10825 10823 10822 10820 10820 10819 10819 10820 10819 10819 10819 10819 10818 10820 10819 10819 10819
10836 10837 10838 10839 10839 10839 10838 10839 10839 10838 10837 10836 10835 10834 10833 10833 10832 10830 10829 10828 10826 10823 10821 10818 10818 10818 10818 10815 10815 10812 10812 10812 10811 10811 10811 10811 10811 10809 10810 10811 10811 10811 10810
10827 10829 10829 10829 10830 10829 10829 10829 10829 10828 10826 10826 10824 10824 10824 10824 10823 10821 10818 10816 10815 10812 10813 10812 10809 10809 10808 10807 10806 10806 10805 10806 10805 10803 10802 10799 10798 10798 10799 10799 10797 10798 10799
10818 10819 10820 10819 10819 10819 10819 10819 10818 10817 10816 10815 10814 10814 10815 10813 10811 10810 10807 10804 10804 10804 10802 10800 10798 10799 10797 10797 10796 10796 10795 10792 10792 10793 10789 10788 10787 10787 10786 10785 10784 10784 10783
10807 10808 10809 10809 10809 10809 10809 10809 10808 10806 10805 10804 10803 10802 10801 10800 10799 10798 10797 10796 10793 10789 10788 10787 10785 10784 10783 10783 10783 10780 10777 10776 10776 10775 10774 10774 10772 10773 10773 10773 10771 10769 10768
10796 10797 10797 10798 10799 10799 10798 10798 10797 10797 10794 10794 10792 10790 10789 10789 10787 10785 10782 10781 10779 10776 10776 10775 10775 10772 10771 10768 10769 10765 10764 10763 10762 10761 10759 10758 10757 10756 10756 10755 10754 10753 10752
10786 10786 10786 10787 10788 10788 10787 10787 10786 10785 10783 10781 10779 10777 10776 10774 10772 10769 10766 10765 10764 10763 10764 10763 10762 10760 10758 10755 10753 10750 10750 10749 10746 10744 10744 10743 10742 10741 10739 10738 10737 10737 10733
10774 10773 10775 10776 10776 10776 10774 10774 10773 10771 10771 10768 10766 10764 10761 10760 10757 10754 10753 10752 10752 10749 10747 10747 10746 10745 10743 10737 10735 10734 10732 10732 10732 10729 10727 10726 10724 10722 10721 10720 10718 10711 10707
10764 10764 10764 10765 10765 10763 10762 10762 10761 10760 10758 10755 10751 10748 10746 10745 10743 10741 10739 10739 10737 10734 10732 10730 10730 10724 10724 10720 10718 10717 10714 10715 10713 10711 10710 10709 10707 10706 10702 10694 10688 10682 10677
10751 10752 10752 10754 10753 10751 10750 10749 10748 10747 10743 10741 10738 10736 10733 10731 10728 10728 10727 10725 10722 10719 10717 10712 10711 10709 10705 10703 10703 10704 10697 10694 10693 10690 10686 10683 10680 10675 10670 10665 10660 10654 10652
10739 10741 10741 10741 10741 10740 10738 10736 10735 10734 10732 10729 10726 10724 10722 10718 10716 10714 10711 10707 10705 10702 10698 10695 10693 10689 10690 10688 10686 10688 10678 10674 10669 10663 10656 10651 10649 10644 10638 10632 10628 10629 10629
10726 10729 10729 10729 10729 10728 10725 10723 10723 10722 10720 10718 10715 10712 10707 10704 10700 10697 10695 10690 10690 10685 10679 10679 10675 10674 10672 10671 10666 10665 10655 10651 10646 10639 10633 10624 10618 10613 10608 10604 10601 10600 10601
10714 10714 10716 10716 10716 10715 10714 10713 10710 10708 10705 10703 10700 10697 10692 10689 10685 10682 10678 10676 10672 10669 10671 10662 10653 10653 10646 10642 10639 10638 10631 10623 10618 10608 10597 10592 10584 10582 10576 10576 10574 10571 10568
10702 10703 10703 10703 10702 10701 10701 10699 10697 10693 10692 10687 10684 10682 10677 10673 10667 10664 10660 10656 10651 10648 10641 10643 10639 10633 10624 10613 10611 10608 10600 10596 10588 10578 10566 10560 10555 10549 10546 10544 10541 10539 10535
10690 10690 10690 10691 10691 10690 10688 10684 10682 10677 10676 10672 10668 10664 10659 10654 10650 10645 10639 10636 10631 10626 10622 10613 10605 10604 10599 10587 10578 10573 10568 10563 10557 10549 10536 10528 10521 10516 10514 10511 10508 10506 10503
10676 10677 10678 10678 10676 10674 10673 10671 10667 10664 10660 10655 10650 10645 10641 10638 10631 10627 10622 10616 10609 10602 10597 10585 10576 10568 10565 10560 10549 10542 10535 10531 10524 10513 10503 10497 10490 10484 10479 10476 10473 10465 10458
10663 10665 10666 10665 10664 10661 10658 10656 10652 10647 10643 10637 10633 10630 10625 10620 10614 10609 10600 10593 10583 10573 10567 10561 10548 10539 10528 10521 10515 10505 10497 10494 10485 10478 10469 10464 10457 10450 10442 10436 10431 10425 10421
10651 10653 10652 10652 10651 10647 10643 10642 10637 10632 10627 10622 10616 10611 10606 10601 10592 10584 10575 10567 10557 10546 10539 10533 10519 10505 10493 10483 10480 10474 10460 10459 10448 10442 10436 10429 10420 10413 10405 10400 10396 10393 10393
10638 10638 10638 10639 10636 10632 10629 10623 10619 10615 10611 10606 10600 10591 10584 10578 10570 10560 10548 10542 10531 10520 10507 10497 10487 10477 10463 10448 10445 10440 10430 10424 10417 10410 10402 10395 10384 10378 10375 10373 10373 10370 10370
10625 10625 10624 10623 10621 10615 10611 10608 10602 10597 10592 10586 10580 10573 10564 10553 10544 10535 10527 10514 10501 10490 10476 10460 10450 10441 10430 10416 10414 10409 10400 10391 10384 10378 10369 10360 10356 10354 10354 10354 10352 10351 10350
10611 10611 10609 10608 10604 10600 10594 10591 10586 10580 10575 10567 10560 10550 10540 10532 10521 10507 10497 10484 10469 10455 10442 10431 10416 10408 10394 10388 10381 10373 10366 10358 10352 10345 10340 10335 10335 10335 10337 10336 10334 10333 10334
10598 10599 10596 10593 10589 10585 10580 10576 10571 10564 10556 10547 10537 10528 10518 10509 10502 10485 10466 10447 10431 10419 10408 10395 10385 10372 10360 10352 10345 10341 10333 10330 10324 10322 10317 10315 10318 10318 10320 10319 10317 10317 10318
10585 10584 10581 10576 10573 10570 10565 10560 10552 10546 10536 10530 10521 10512 10500 10484 10468 10451 10436 10419 10402 10386 10373 10359 10344 10333 10324 10316 10317 10313 10310 10307 10302 10300 10300 10297 10304 10302 10303 10301 10300 10301 10302
10574 10572 10569 10565 10562 10557 10552 10546 10538 10529 10521 10512 10503 10490 10472 10456 10438 10422 10406 10387 10369 10352 10334 10321 10310 10301 10298 10294 10296 10292 10288 10286 10284 10282 10284 10283 10286 10286 10286 10283 10282 10283 10286
10563 10560 10556 10551 10546 10543 10537 10529 10521 10512 10504 10491 10481 10466 10450 10431 10413 10396 10376 10354 10333 10319 10306 10295 10287 10281 10276 10275 10273 10272 10269 10270 10269 10267 10267 10271 10267 10271 10272 10269 10267 10266 10267
10547 10543 10539 10535 10531 10527 10522 10512 10503 10494 10485 10476 10462 10443 10426 10408 10388 10369 10350 10328 10309 10298 10285 10276 10269 10263 10258 10255 10254 10254 10253 10254 10254 10254 10251 10256 10253 10254 10255 10254 10254 10252 10250